Weather data: current mndag, 2020-09-21 17:00
Date Time Temp. Inne Temp. Ute Temp Altan Solmtare Temp. 4 Temp. 5 Temp. 6 Temp. 7 Temp. 9 RF Ute RF Alt Hum. 3 Hum. 4 RelFuktLekst Rain Wind Direction Direction Sunshine Dew point Wind chill Wind gust
2020-09-21 17:00 20,8 C 20,0 C 22,8 C -1,2 C 0,0 C 0,0 C 19,3 C 17,9 C 0,0 C 62 % 53 % 0 % 0 % 0 % 0,0 mm 0,9 m/s (1 Bft) S-SW 202 0 min 12,5 C 20,0 C 1,3 m/s (1 Bft)
2020-09-21 16:55 20,8 C 20,1 C 22,7 C -1,7 C 0,0 C 0,0 C 19,2 C 17,3 C 0,0 C 62 % 53 % 0 % 0 % 0 % 0,0 mm 0,9 m/s (1 Bft) S-SE 157 0 min 12,6 C 20,1 C 1,0 m/s (1 Bft)
2020-09-21 16:50 20,7 C 20,0 C 22,7 C 0,8 C 0,0 C 0,0 C 19,0 C 16,9 C 0,0 C 63 % 53 % 0 % 0 % 0 % 0,0 mm 1,0 m/s (1 Bft) S-SE 157 0 min 12,7 C 20,0 C 0,0 m/s (0 Bft)
2020-09-21 16:45 20,7 C 20,1 C 22,6 C -0,2 C 0,0 C 0,0 C 19,0 C 16,7 C 0,0 C 62 % 52 % 0 % 0 % 0 % 0,0 mm 1,0 m/s (1 Bft) S 180 0 min 12,6 C 20,1 C 1,1 m/s (1 Bft)
2020-09-21 16:40 20,6 C 20,3 C 22,7 C -0,6 C 0,0 C 0,0 C 19,2 C 16,9 C 0,0 C 61 % 52 % 0 % 0 % 0 % 0,0 mm 1,0 m/s (1 Bft) S-SE 157 0 min 12,5 C 20,3 C 1,3 m/s (1 Bft)
2020-09-21 16:35 20,6 C 20,4 C 22,5 C -0,9 C 0,0 C 0,0 C 19,3 C 17,0 C 0,0 C 61 % 52 % 0 % 0 % 0 % 0,0 mm 1,0 m/s (1 Bft) S 180 0 min 12,6 C 20,4 C 0,4 m/s (1 Bft)
2020-09-21 16:30 20,6 C 20,7 C 22,7 C -1,2 C 0,0 C 0,0 C 19,5 C 17,1 C 0,0 C 59 % 52 % 0 % 0 % 0 % 0,0 mm 1,1 m/s (1 Bft) W-SW 247 0 min 12,4 C 20,7 C 1,4 m/s (1 Bft)
2020-09-21 16:25 20,6 C 21,0 C 22,6 C -2,4 C 0,0 C 0,0 C 19,7 C 17,2 C 0,0 C 58 % 51 % 0 % 0 % 0 % 0,0 mm 1,2 m/s (1 Bft) S-SW 202 0 min 12,4 C 21,0 C 1,3 m/s (1 Bft)
2020-09-21 16:20 20,6 C 21,2 C 22,7 C -2,6 C 0,0 C 0,0 C 19,9 C 17,2 C 0,0 C 58 % 51 % 0 % 0 % 0 % 0,0 mm 1,3 m/s (1 Bft) S-SW 202 0 min 12,6 C 21,2 C 0,7 m/s (1 Bft)
2020-09-21 16:15 20,6 C 21,5 C 23,0 C -4,8 C 0,0 C 0,0 C 20,1 C 17,4 C 0,0 C 58 % 50 % 0 % 0 % 0 % 0,0 mm 1,2 m/s (1 Bft) SW 225 0 min 12,9 C 21,5 C 1,3 m/s (1 Bft)
2020-09-21 16:10 20,7 C 21,6 C 23,2 C -2,0 C 0,0 C 0,0 C 20,3 C 17,7 C 0,0 C 57 % 50 % 0 % 0 % 0 % 0,0 mm 0,9 m/s (1 Bft) SE 135 0 min 12,7 C 21,6 C 1,1 m/s (1 Bft)
2020-09-21 16:05 20,7 C 21,9 C 23,7 C -2,9 C 0,0 C 0,0 C 20,6 C 18,1 C 0,0 C 57 % 49 % 0 % 0 % 0 % 0,0 mm 0,8 m/s (1 Bft) SW 225 0 min 13,0 C 21,9 C 0,8 m/s (1 Bft)
2020-09-21 16:00 20,7 C 22,1 C 23,9 C -1,7 C 0,0 C 0,0 C 20,9 C 18,5 C 0,0 C 55 % 48 % 0 % 0 % 0 % 0,0 mm 1,0 m/s (1 Bft) S 180 0 min 12,6 C 22,1 C 0,9 m/s (1 Bft)
2020-09-21 15:55 20,7 C 22,4 C 24,3 C -0,7 C 0,0 C 0,0 C 21,4 C 19,3 C 0,0 C 55 % 48 % 0 % 0 % 0 % 0,0 mm 1,1 m/s (1 Bft) S-SE 157 0 min 12,9 C 22,4 C 1,4 m/s (1 Bft)
2020-09-21 15:50 20,6 C 22,5 C 24,5 C -4,2 C 0,0 C 0,0 C 21,5 C 19,5 C 0,0 C 55 % 47 % 0 % 0 % 0 % 0,0 mm 1,3 m/s (1 Bft) S-SE 157 0 min 13,0 C 22,5 C 0,9 m/s (1 Bft)
2020-09-21 15:45 20,7 C 22,7 C 24,9 C 0,2 C 0,0 C 0,0 C 21,9 C 20,2 C 0,0 C 53 % 46 % 0 % 0 % 0 % 0,0 mm 1,0 m/s (1 Bft) S 180 0 min 12,6 C 22,7 C 2,0 m/s (2 Bft)
2020-09-21 15:40 20,7 C 22,8 C 25,1 C 3,4 C 0,0 C 0,0 C 22,1 C 20,7 C 0,0 C 52 % 45 % 0 % 0 % 0 % 0,0 mm 1,0 m/s (1 Bft) S-SE 157 0 min 12,4 C 22,8 C 1,8 m/s (2 Bft)
2020-09-21 15:35 20,6 C 23,0 C 25,5 C -0,5 C 0,0 C 0,0 C 22,5 C 21,4 C 0,0 C 52 % 45 % 0 % 0 % 0 % 0,0 mm 1,0 m/s (1 Bft) SE 135 0 min 12,6 C 23,0 C 0,7 m/s (1 Bft)
2020-09-21 15:30 20,6 C 23,1 C 25,9 C -1,3 C 0,0 C 0,0 C 22,8 C 22,1 C 0,0 C 52 % 46 % 0 % 0 % 0 % 0,0 mm 1,0 m/s (1 Bft) S-SE 157 0 min 12,7 C 23,1 C 2,6 m/s (2 Bft)
2020-09-21 15:25 20,6 C 23,3 C 26,4 C 0,3 C 0,0 C 0,0 C 23,3 C 23,2 C 0,0 C 54 % 47 % 0 % 0 % 0 % 0,0 mm 1,1 m/s (1 Bft) S-SE 157 0 min 13,5 C 23,3 C 1,4 m/s (1 Bft)
2020-09-21 15:20 20,5 C 23,4 C 26,2 C -5,3 C 0,0 C 0,0 C 23,5 C 23,5 C 0,0 C 53 % 48 % 0 % 0 % 0 % 0,0 mm 1,1 m/s (1 Bft) S-SE 157 0 min 13,3 C 23,4 C 0,5 m/s (1 Bft)
2020-09-21 15:15 20,5 C 23,3 C 25,9 C -0,5 C 0,0 C 0,0 C 23,2 C 23,1 C 0,0 C 54 % 49 % 0 % 0 % 0 % 0,0 mm 1,2 m/s (1 Bft) E-SE 112 0 min 13,5 C 23,3 C 0,9 m/s (1 Bft)
2020-09-21 15:10 20,4 C 23,1 C 25,7 C -2,4 C 0,0 C 0,0 C 23,0 C 22,9 C 0,0 C 55 % 49 % 0 % 0 % 0 % 0,0 mm 1,2 m/s (1 Bft) S-SE 157 0 min 13,6 C 23,1 C 1,1 m/s (1 Bft)
2020-09-21 15:05 20,4 C 23,1 C 25,4 C -1,1 C 0,0 C 0,0 C 23,1 C 23,0 C 0,0 C 56 % 49 % 0 % 0 % 0 % 0,0 mm 0,9 m/s (1 Bft) SE 135 0 min 13,8 C 23,1 C 0,9 m/s (1 Bft)
2020-09-21 15:00 20,3 C 23,0 C 25,3 C -1,0 C 0,0 C 0,0 C 23,0 C 22,9 C 0,0 C 57 % 50 % 0 % 0 % 0 % 0,0 mm 0,9 m/s (1 Bft) NE 45 0 min 14,0 C 23,0 C 0,9 m/s (1 Bft)
2020-09-21 14:55 20,2 C 22,8 C 25,0 C -1,6 C 0,0 C 0,0 C 22,6 C 22,3 C 0,0 C 58 % 50 % 0 % 0 % 0 % 0,0 mm 1,0 m/s (1 Bft) SE 135 0 min 14,1 C 22,8 C 0,0 m/s (0 Bft)
2020-09-21 14:50 20,2 C 22,6 C 24,8 C -0,3 C 0,0 C 0,0 C 22,6 C 22,5 C 0,0 C 58 % 51 % 0 % 0 % 0 % 0,0 mm 0,9 m/s (1 Bft) E-SE 112 0 min 13,9 C 22,6 C 1,3 m/s (1 Bft)
2020-09-21 14:45 20,2 C 22,4 C 24,4 C 1,2 C 0,0 C 0,0 C 22,3 C 22,0 C 0,0 C 59 % 51 % 0 % 0 % 0 % 0,0 mm 1,0 m/s (1 Bft) E 90 0 min 14,0 C 22,4 C 1,3 m/s (1 Bft)
2020-09-21 14:40 20,1 C 22,3 C 24,2 C -0,3 C 0,0 C 0,0 C 22,1 C 21,8 C 0,0 C 60 % 52 % 0 % 0 % 0 % 0,0 mm 1,2 m/s (1 Bft) E-SE 112 0 min 14,2 C 22,3 C 1,2 m/s (1 Bft)
2020-09-21 14:35 20,1 C 22,0 C 23,8 C -1,1 C 0,0 C 0,0 C 21,9 C 21,6 C 0,0 C 62 % 52 % 0 % 0 % 0 % 0,0 mm 1,2 m/s (1 Bft) S-SE 157 0 min 14,4 C 22,0 C 0,6 m/s (1 Bft)
2020-09-21 14:30 20,0 C 21,8 C 23,7 C 3,1 C 0,0 C 0,0 C 21,8 C 21,8 C 0,0 C 61 % 52 % 0 % 0 % 0 % 0,0 mm 1,0 m/s (1 Bft) N-NW 337 0 min 13,9 C 21,8 C 1,3 m/s (1 Bft)
2020-09-21 14:25 20,0 C 22,3 C 23,6 C 0,1 C 0,0 C 0,0 C 22,9 C 22,9 C 0,0 C 62 % 53 % 0 % 0 % 0 % 0,0 mm 0,9 m/s (1 Bft) SE 135 0 min 14,7 C 22,3 C 1,1 m/s (1 Bft)
2020-09-21 14:20 19,9 C 21,9 C 23,3 C -1,9 C 0,0 C 0,0 C 22,6 C 22,6 C 0,0 C 63 % 54 % 0 % 0 % 0 % 0,0 mm 1,0 m/s (1 Bft) S 180 0 min 14,5 C 21,9 C 0,0 m/s (0 Bft)
2020-09-21 14:15 19,8 C 21,5 C 22,7 C -0,1 C 0,0 C 0,0 C 22,4 C 22,4 C 0,0 C 64 % 55 % 0 % 0 % 0 % 0,0 mm 0,5 m/s (1 Bft) S-SE 157 0 min 14,4 C 21,5 C 1,3 m/s (1 Bft)
2020-09-21 14:10 19,8 C 21,1 C 22,1 C -0,2 C 0,0 C 0,0 C 21,6 C 21,6 C 0,0 C 66 % 56 % 0 % 0 % 0 % 0,0 mm 0,3 m/s (0 Bft) SW 225 0 min 14,5 C 21,1 C 1,0 m/s (1 Bft)
2020-09-21 14:05 19,7 C 20,3 C 21,4 C 0,8 C 0,0 C 0,0 C 20,2 C 20,0 C 0,0 C 67 % 57 % 0 % 0 % 0 % 0,0 mm 0,2 m/s (0 Bft) W-SW 247 0 min 14,0 C 20,3 C 0,0 m/s (0 Bft)
2020-09-21 14:00 19,7 C 20,1 C 21,4 C -0,6 C 0,0 C 0,0 C 20,3 C 20,3 C 0,0 C 67 % 57 % 0 % 0 % 0 % 0,0 mm 0,3 m/s (0 Bft) S 180 0 min 13,8 C 20,1 C 0,5 m/s (1 Bft)
2020-09-21 13:55 19,7 C 20,2 C 21,2 C -0,4 C 0,0 C 0,0 C 20,0 C 19,6 C 0,0 C 69 % 58 % 0 % 0 % 0 % 0,0 mm 0,5 m/s (1 Bft) SE 135 0 min 14,3 C 20,2 C 0,0 m/s (0 Bft)
2020-09-21 13:50 19,6 C 19,8 C 20,8 C 0,5 C 0,0 C 0,0 C 19,6 C 19,1 C 0,0 C 70 % 58 % 0 % 0 % 0 % 0,0 mm 0,7 m/s (1 Bft) S 180 0 min 14,2 C 19,8 C 1,4 m/s (1 Bft)
2020-09-21 13:45 19,6 C 19,3 C 20,4 C 1,0 C 0,0 C 0,0 C 19,1 C 18,7 C 0,0 C 71 % 58 % 0 % 0 % 0 % 0,0 mm 0,4 m/s (1 Bft) S 180 0 min 13,9 C 19,3 C 0,0 m/s (0 Bft)
2020-09-21 13:40 19,6 C 19,2 C 20,3 C -0,6 C 0,0 C 0,0 C 19,0 C 18,7 C 0,0 C 72 % 58 % 0 % 0 % 0 % 0,0 mm 0,3 m/s (1 Bft) SE 135 0 min 14,0 C 19,2 C 0,8 m/s (1 Bft)
2020-09-21 13:35 19,6 C 18,9 C 20,1 C -1,5 C 0,0 C 0,0 C 18,7 C 18,4 C 0,0 C 73 % 59 % 0 % 0 % 0 % 0,0 mm 0,5 m/s (1 Bft) SE 135 0 min 13,9 C 18,9 C 1,0 m/s (1 Bft)
2020-09-21 13:30 19,6 C 18,7 C 19,9 C -0,4 C 0,0 C 0,0 C 18,5 C 18,2 C 0,0 C 74 % 59 % 0 % 0 % 0 % 0,0 mm 0,4 m/s (1 Bft) S 180 0 min 14,0 C 18,7 C 0,0 m/s (0 Bft)
2020-09-21 13:25 19,6 C 18,2 C 19,4 C 0,5 C 0,0 C 0,0 C 18,0 C 17,5 C 0,0 C 76 % 60 % 0 % 0 % 0 % 0,0 mm 0,2 m/s (0 Bft) SE 135 0 min 13,9 C 18,2 C 0,8 m/s (1 Bft)
2020-09-21 13:20 19,6 C 17,6 C 19,2 C 3,9 C 0,0 C 0,0 C 17,4 C 16,9 C 0,0 C 76 % 60 % 0 % 0 % 0 % 0,0 mm 0,2 m/s (0 Bft) NE 45 0 min 13,3 C 17,6 C 0,0 m/s (0 Bft)
2020-09-21 13:15 19,5 C 17,3 C 18,9 C 3,3 C 0,0 C 0,0 C 17,1 C 16,6 C 0,0 C 77 % 61 % 0 % 0 % 0 % 0,0 mm 0,1 m/s (0 Bft) NE 45 0 min 13,2 C 17,3 C 1,0 m/s (1 Bft)
2020-09-21 13:10 19,5 C 17,0 C 18,7 C 3,1 C 0,0 C 0,0 C 16,7 C 16,2 C 0,0 C 78 % 61 % 0 % 0 % 0 % 0,0 mm 0,0 m/s (0 Bft) E-NE 67 0 min 13,1 C 17,0 C 0,0 m/s (0 Bft)
2020-09-21 13:05 19,5 C 16,7 C 18,6 C 1,2 C 0,0 C 0,0 C 16,4 C 15,8 C 0,0 C 78 % 61 % 0 % 0 % 0 % 0,0 mm 0,1 m/s (0 Bft) N 360 0 min 12,8 C 16,7 C 0,0 m/s (0 Bft)
2020-09-21 13:00 19,5 C 16,6 C 18,4 C 2,9 C 0,0 C 0,0 C 16,3 C 15,7 C 0,0 C 79 % 62 % 0 % 0 % 0 % 0,0 mm 0,1 m/s (0 Bft) E-NE 67 0 min 12,9 C 16,6 C 0,0 m/s (0 Bft)
2020-09-21 12:55 19,5 C 16,4 C 18,4 C 0,9 C 0,0 C 0,0 C 16,1 C 15,4 C 0,0 C 80 % 62 % 0 % 0 % 0 % 0,0 mm 0,1 m/s (0 Bft) NE 45 0 min 12,9 C 16,4 C 0,0 m/s (0 Bft)
2020-09-21 12:50 19,5 C 16,2 C 18,4 C 0,3 C 0,0 C 0,0 C 15,8 C 15,0 C 0,0 C 80 % 61 % 0 % 0 % 0 % 0,0 mm 0,1 m/s (0 Bft) NW 315 0 min 12,7 C 16,2 C 0,0 m/s (0 Bft)
2020-09-21 12:45 19,5 C 15,9 C 18,3 C -2,0 C 0,0 C 0,0 C 15,5 C 14,8 C 0,0 C 80 % 62 % 0 % 0 % 0 % 0,0 mm 0,1 m/s (0 Bft) NW 315 0 min 12,5 C 15,9 C 0,0 m/s (0 Bft)
2020-09-21 12:40 19,5 C 15,8 C 18,0 C -2,8 C 0,0 C 0,0 C 15,4 C 14,6 C 0,0 C 81 % 62 % 0 % 0 % 0 % 0,0 mm 0,1 m/s (0 Bft) NW 315 0 min 12,5 C 15,8 C 0,4 m/s (1 Bft)
2020-09-21 12:35 19,4 C 15,5 C 18,1 C -2,0 C 0,0 C 0,0 C 15,1 C 14,2 C 0,0 C 81 % 63 % 0 % 0 % 0 % 0,0 mm 0,2 m/s (0 Bft) SE 135 0 min 12,3 C 15,5 C 0,0 m/s (0 Bft)
2020-09-21 12:30 19,4 C 15,3 C 17,9 C -1,6 C 0,0 C 0,0 C 14,9 C 14,0 C 0,0 C 81 % 63 % 0 % 0 % 0 % 0,0 mm 0,2 m/s (0 Bft) E-NE 67 0 min 12,1 C 15,3 C 0,0 m/s (0 Bft)
2020-09-21 12:25 19,4 C 15,2 C 17,9 C -1,9 C 0,0 C 0,0 C 14,8 C 13,9 C 0,0 C 81 % 63 % 0 % 0 % 0 % 0,0 mm 0,3 m/s (1 Bft) E 90 0 min 12,0 C 15,2 C 1,0 m/s (1 Bft)
2020-09-21 12:20 19,4 C 15,2 C 17,9 C -2,9 C 0,0 C 0,0 C 14,8 C 13,9 C 0,0 C 81 % 63 % 0 % 0 % 0 % 0,0 mm 0,4 m/s (1 Bft) E-NE 67 0 min 12,0 C 15,2 C 0,0 m/s (0 Bft)
2020-09-21 12:15 19,4 C 15,1 C 17,8 C -0,1 C 0,0 C 0,0 C 14,7 C 13,9 C 0,0 C 81 % 64 % 0 % 0 % 0 % 0,0 mm 0,3 m/s (1 Bft) E-NE 67 0 min 11,9 C 15,1 C 1,3 m/s (1 Bft)
2020-09-21 12:10 19,4 C 15,2 C 17,7 C 0,7 C 0,0 C 0,0 C 14,8 C 13,9 C 0,0 C 81 % 64 % 0 % 0 % 0 % 0,0 mm 0,3 m/s (1 Bft) E-SE 112 0 min 12,0 C 15,2 C 0,6 m/s (1 Bft)
2020-09-21 12:05 19,4 C 15,1 C 17,6 C 0,0 C 0,0 C 0,0 C 14,7 C 13,9 C 0,0 C 81 % 64 % 0 % 0 % 0 % 0,0 mm 0,5 m/s (1 Bft) E-SE 112 0 min 11,9 C 15,1 C 0,4 m/s (1 Bft)
2020-09-21 12:00 19,4 C 15,1 C 17,6 C -0,2 C 0,0 C 0,0 C 14,7 C 13,9 C 0,0 C 81 % 64 % 0 % 0 % 0 % 0,0 mm 0,5 m/s (1 Bft) S-SE 157 0 min 11,9 C 15,1 C 0,9 m/s (1 Bft)
2020-09-21 11:55 19,4 C 15,1 C 17,7 C -1,5 C 0,0 C 0,0 C 14,7 C 13,9 C 0,0 C 81 % 64 % 0 % 0 % 0 % 0,0 mm 0,3 m/s (0 Bft) S 180 0 min 11,9 C 15,1 C 0,5 m/s (1 Bft)
2020-09-21 11:50 19,4 C 15,1 C 17,6 C 1,1 C 0,0 C 0,0 C 14,7 C 13,8 C 0,0 C 81 % 65 % 0 % 0 % 0 % 0,0 mm 0,2 m/s (0 Bft) SE 135 0 min 11,9 C 15,1 C 0,6 m/s (1 Bft)
2020-09-21 11:45 19,4 C 15,1 C 17,5 C 0,0 C 0,0 C 0,0 C 14,7 C 13,8 C 0,0 C 81 % 65 % 0 % 0 % 0 % 0,0 mm 0,2 m/s (0 Bft) SE 135 0 min 11,9 C 15,1 C 0,0 m/s (0 Bft)
2020-09-21 11:40 19,4 C 14,9 C 17,5 C 0,8 C 0,0 C 0,0 C 14,5 C 13,8 C 0,0 C 81 % 65 % 0 % 0 % 0 % 0,0 mm 0,1 m/s (0 Bft) SE 135 0 min 11,7 C 14,9 C 0,0 m/s (0 Bft)
2020-09-21 11:35 19,5 C 14,9 C 17,5 C 1,8 C 0,0 C 0,0 C 14,5 C 13,8 C 0,0 C 81 % 65 % 0 % 0 % 0 % 0,0 mm 0,1 m/s (0 Bft) E-SE 112 0 min 11,7 C 14,9 C 0,0 m/s (0 Bft)
2020-09-21 11:30 19,5 C 14,9 C 17,5 C -0,5 C 0,0 C 0,0 C 14,5 C 13,7 C 0,0 C 81 % 65 % 0 % 0 % 0 % 0,0 mm 0,1 m/s (0 Bft) SE 135 0 min 11,7 C 14,9 C 0,0 m/s (0 Bft)
2020-09-21 11:25 19,5 C 14,8 C 17,4 C 1,9 C 0,0 C 0,0 C 14,3 C 13,4 C 0,0 C 81 % 64 % 0 % 0 % 0 % 0,0 mm 0,1 m/s (0 Bft) E-SE 112 0 min 11,6 C 14,8 C 0,0 m/s (0 Bft)
2020-09-21 11:20 19,5 C 14,7 C 17,5 C 1,9 C 0,0 C 0,0 C 14,2 C 13,3 C 0,0 C 82 % 64 % 0 % 0 % 0 % 0,0 mm 0,1 m/s (0 Bft) NE 45 0 min 11,7 C 14,7 C 0,0 m/s (0 Bft)
2020-09-21 11:15 19,5 C 14,8 C 17,5 C 1,0 C 0,0 C 0,0 C 14,3 C 13,4 C 0,0 C 82 % 65 % 0 % 0 % 0 % 0,0 mm 0,1 m/s (0 Bft) E-SE 112 0 min 11,8 C 14,8 C 0,0 m/s (0 Bft)
2020-09-21 11:10 19,5 C 14,8 C 17,4 C 3,0 C 0,0 C 0,0 C 14,4 C 13,5 C 0,0 C 82 % 65 % 0 % 0 % 0 % 0,0 mm 0,1 m/s (0 Bft) SE 135 0 min 11,8 C 14,8 C 0,0 m/s (0 Bft)
2020-09-21 11:05 19,4 C 14,8 C 17,5 C -3,1 C 0,0 C 0,0 C 14,4 C 13,6 C 0,0 C 82 % 65 % 0 % 0 % 0 % 0,0 mm 0,0 m/s (0 Bft) S 180 0 min 11,8 C 14,8 C 0,0 m/s (0 Bft)
2020-09-21 11:00 19,4 C 14,8 C 17,5 C -0,2 C 0,0 C 0,0 C 14,4 C 13,6 C 0,0 C 82 % 65 % 0 % 0 % 0 % 0,0 mm 0,0 m/s (0 Bft) W-SW 247 0 min 11,8 C 14,8 C 0,0 m/s (0 Bft)
2020-09-21 10:55 19,5 C 14,7 C 17,4 C 0,0 C 0,0 C 0,0 C 14,3 C 13,4 C 0,0 C 82 % 65 % 0 % 0 % 0 % 0,0 mm 0,1 m/s (0 Bft) S-SE 157 0 min 11,7 C 14,7 C 0,0 m/s (0 Bft)
2020-09-21 10:50 19,4 C 14,6 C 17,3 C -3,8 C 0,0 C 0,0 C 14,2 C 13,4 C 0,0 C 82 % 65 % 0 % 0 % 0 % 0,0 mm 0,1 m/s (0 Bft) SE 135 0 min 11,6 C 14,6 C 0,0 m/s (0 Bft)
2020-09-21 10:45 19,4 C 14,7 C 17,2 C -2,5 C 0,0 C 0,0 C 14,2 C 13,2 C 0,0 C 82 % 65 % 0 % 0 % 0 % 0,0 mm 0,1 m/s (0 Bft) SE 135 0 min 11,7 C 14,7 C 0,0 m/s (0 Bft)
2020-09-21 10:40 19,5 C 14,5 C 17,2 C -2,3 C 0,0 C 0,0 C 14,1 C 13,2 C 0,0 C 82 % 65 % 0 % 0 % 0 % 0,0 mm 0,2 m/s (0 Bft) E 90 0 min 11,5 C 14,5 C 0,0 m/s (0 Bft)
2020-09-21 10:35 19,4 C 14,6 C 17,1 C -6,5 C 0,0 C 0,0 C 14,1 C 13,2 C 0,0 C 82 % 65 % 0 % 0 % 0 % 0,0 mm 0,1 m/s (0 Bft) S 180 0 min 11,6 C 14,6 C 0,8 m/s (1 Bft)
2020-09-21 10:30 19,5 C 14,5 C 17,1 C -4,6 C 0,0 C 0,0 C 14,1 C 13,2 C 0,0 C 83 % 65 % 0 % 0 % 0 % 0,0 mm 0,0 m/s (0 Bft) S-SE 157 0 min 11,6 C 14,5 C 0,0 m/s (0 Bft)
2020-09-21 10:25 19,5 C 14,3 C 17,1 C -5,2 C 0,0 C 0,0 C 13,8 C 12,8 C 0,0 C 83 % 65 % 0 % 0 % 0 % 0,0 mm 0,0 m/s (0 Bft) NW 315 0 min 11,5 C 14,3 C 0,0 m/s (0 Bft)
2020-09-21 10:20 19,5 C 14,2 C 17,1 C -5,8 C 0,0 C 0,0 C 13,7 C 12,6 C 0,0 C 83 % 65 % 0 % 0 % 0 % 0,0 mm 0,1 m/s (0 Bft) W-SW 247 0 min 11,4 C 14,2 C 0,0 m/s (0 Bft)
2020-09-21 10:15 19,5 C 14,1 C 16,9 C -4,9 C 0,0 C 0,0 C 13,6 C 12,5 C 0,0 C 83 % 65 % 0 % 0 % 0 % 0,0 mm 0,1 m/s (0 Bft) E-NE 67 0 min 11,3 C 14,1 C 0,0 m/s (0 Bft)
2020-09-21 10:10 19,5 C 14,1 C 16,8 C -5,7 C 0,0 C 0,0 C 13,6 C 12,6 C 0,0 C 83 % 65 % 0 % 0 % 0 % 0,0 mm 0,1 m/s (0 Bft) E-SE 112 0 min 11,3 C 14,1 C 0,0 m/s (0 Bft)
2020-09-21 10:05 19,5 C 14,0 C 16,9 C -3,8 C 0,0 C 0,0 C 13,5 C 12,5 C 0,0 C 83 % 65 % 0 % 0 % 0 % 0,0 mm 0,1 m/s (0 Bft) S 180 0 min 11,2 C 14,0 C 0,0 m/s (0 Bft)
2020-09-21 10:00 19,5 C 14,1 C 16,8 C -4,8 C 0,0 C 0,0 C 13,6 C 12,5 C 0,0 C 83 % 65 % 0 % 0 % 0 % 0,0 mm 0,1 m/s (0 Bft) W 270 0 min 11,3 C 14,1 C 0,0 m/s (0 Bft)
2020-09-21 09:55 19,5 C 14,0 C 16,8 C -3,0 C 0,0 C 0,0 C 13,4 C 12,3 C 0,0 C 84 % 65 % 0 % 0 % 0 % 0,0 mm 0,4 m/s (1 Bft) NW 315 0 min 11,3 C 14,0 C 0,0 m/s (0 Bft)
2020-09-21 09:50 19,5 C 13,9 C 16,8 C -4,8 C 0,0 C 0,0 C 13,3 C 12,2 C 0,0 C 83 % 65 % 0 % 0 % 0 % 0,0 mm 0,5 m/s (1 Bft) SW 225 0 min 11,1 C 13,9 C 0,0 m/s (0 Bft)
2020-09-21 09:45 19,6 C 13,9 C 16,7 C -3,2 C 0,0 C 0,0 C 13,3 C 12,0 C 0,0 C 84 % 65 % 0 % 0 % 0 % 0,0 mm 0,4 m/s (1 Bft) W-SW 247 0 min 11,2 C 13,9 C 1,2 m/s (1 Bft)
2020-09-21 09:40 19,6 C 13,8 C 16,6 C -3,4 C 0,0 C 0,0 C 13,1 C 11,8 C 0,0 C 84 % 65 % 0 % 0 % 0 % 0,0 mm 0,4 m/s (1 Bft) NW 315 0 min 11,1 C 13,8 C 0,7 m/s (1 Bft)
2020-09-21 09:35 19,6 C 13,6 C 16,5 C -0,6 C 0,0 C 0,0 C 12,9 C 11,5 C 0,0 C 84 % 65 % 0 % 0 % 0 % 0,0 mm 0,5 m/s (1 Bft) NE 45 0 min 10,9 C 13,6 C 0,0 m/s (0 Bft)
2020-09-21 09:30 19,6 C 13,7 C 16,4 C -2,9 C 0,0 C 0,0 C 12,9 C 11,4 C 0,0 C 85 % 65 % 0 % 0 % 0 % 0,0 mm 0,6 m/s (1 Bft) S 180 0 min 11,2 C 13,7 C 1,1 m/s (1 Bft)
2020-09-21 09:25 19,6 C 13,3 C 16,4 C 0,9 C 0,0 C 0,0 C 12,6 C 11,3 C 0,0 C 85 % 65 % 0 % 0 % 0 % 0,0 mm 0,3 m/s (1 Bft) W 270 0 min 10,8 C 13,3 C 0,7 m/s (1 Bft)
2020-09-21 09:20 19,6 C 13,2 C 16,5 C 1,5 C 0,0 C 0,0 C 12,6 C 11,3 C 0,0 C 85 % 65 % 0 % 0 % 0 % 0,0 mm 0,1 m/s (0 Bft) S 180 0 min 10,7 C 13,2 C 0,6 m/s (1 Bft)
2020-09-21 09:15 19,7 C 13,0 C 16,6 C -0,2 C 0,0 C 0,0 C 12,4 C 11,3 C 0,0 C 85 % 65 % 0 % 0 % 0 % 0,0 mm 0,1 m/s (0 Bft) S 180 0 min 10,5 C 13,0 C 0,0 m/s (0 Bft)
2020-09-21 09:10 19,7 C 12,8 C 16,5 C -1,2 C 0,0 C 0,0 C 12,3 C 11,2 C 0,0 C 85 % 65 % 0 % 0 % 0 % 0,0 mm 0,1 m/s (0 Bft) E-SE 112 0 min 10,3 C 12,8 C 0,0 m/s (0 Bft)
2020-09-21 09:05 19,7 C 12,8 C 16,4 C -1,2 C 0,0 C 0,0 C 12,3 C 11,2 C 0,0 C 85 % 65 % 0 % 0 % 0 % 0,0 mm 0,1 m/s (0 Bft) SE 135 0 min 10,3 C 12,8 C 0,0 m/s (0 Bft)
2020-09-21 09:00 19,8 C 12,8 C 16,5 C 0,0 C 0,0 C 0,0 C 12,2 C 11,1 C 0,0 C 85 % 65 % 0 % 0 % 0 % 0,0 mm 0,2 m/s (0 Bft) E 90 0 min 10,3 C 12,8 C 0,0 m/s (0 Bft)
2020-09-21 08:55 19,8 C 12,7 C 16,4 C -0,4 C 0,0 C 0,0 C 12,2 C 11,1 C 0,0 C 85 % 65 % 0 % 0 % 0 % 0,0 mm 0,1 m/s (0 Bft) E-SE 112 0 min 10,2 C 12,7 C 0,0 m/s (0 Bft)
2020-09-21 08:50 19,8 C 12,7 C 16,3 C -0,5 C 0,0 C 0,0 C 12,2 C 11,1 C 0,0 C 86 % 65 % 0 % 0 % 0 % 0,0 mm 0,1 m/s (0 Bft) E-SE 112 0 min 10,4 C 12,7 C 0,0 m/s (0 Bft)
2020-09-21 08:45 19,8 C 12,7 C 16,3 C 0,0 C 0,0 C 0,0 C 12,2 C 11,1 C 0,0 C 86 % 66 % 0 % 0 % 0 % 0,0 mm 0,1 m/s (0 Bft) SE 135 0 min 10,4 C 12,7 C 0,0 m/s (0 Bft)
2020-09-21 08:40 19,8 C 12,7 C 16,2 C 1,1 C 0,0 C 0,0 C 12,2 C 11,1 C 0,0 C 86 % 66 % 0 % 0 % 0 % 0,0 mm 0,0 m/s (0 Bft) SE 135 0 min 10,4 C 12,7 C 0,0 m/s (0 Bft)
2020-09-21 08:35 19,8 C 12,7 C 16,3 C -0,2 C 0,0 C 0,0 C 12,2 C 11,1 C 0,0 C 86 % 66 % 0 % 0 % 0 % 0,0 mm 0,0 m/s (0 Bft) S 180 0 min 10,4 C 12,7 C 0,0 m/s (0 Bft)
2020-09-21 08:30 19,8 C 12,7 C 16,2 C -0,8 C 0,0 C 0,0 C 12,2 C 11,1 C 0,0 C 86 % 66 % 0 % 0 % 0 % 0,0 mm 0,0 m/s (0 Bft) E-SE 112 0 min 10,4 C 12,7 C 0,0 m/s (0 Bft)
2020-09-21 08:25 19,9 C 12,6 C 16,0 C -1,6 C 0,0 C 0,0 C 12,1 C 11,1 C 0,0 C 86 % 66 % 0 % 0 % 0 % 0,0 mm 0,0 m/s (0 Bft) SE 135 0 min 10,3 C 12,6 C 0,0 m/s (0 Bft)
2020-09-21 08:20 19,9 C 12,5 C 16,1 C -2,1 C 0,0 C 0,0 C 12,0 C 11,0 C 0,0 C 86 % 66 % 0 % 0 % 0 % 0,0 mm 0,0 m/s (0 Bft) SE 135 0 min 10,2 C 12,5 C 0,0 m/s (0 Bft)
2020-09-21 08:15 19,9 C 12,5 C 15,9 C -0,7 C 0,0 C 0,0 C 12,0 C 10,9 C 0,0 C 86 % 66 % 0 % 0 % 0 % 0,0 mm 0,0 m/s (0 Bft) SE 135 0 min 10,2 C 12,5 C 0,0 m/s (0 Bft)
2020-09-21 08:10 20,0 C 12,4 C 15,8 C 0,5 C 0,0 C 0,0 C 11,9 C 10,9 C 0,0 C 86 % 66 % 0 % 0 % 0 % 0,0 mm 0,0 m/s (0 Bft) E-SE 112 0 min 10,1 C 12,4 C 0,0 m/s (0 Bft)
2020-09-21 08:05 20,0 C 12,3 C 15,6 C -2,4 C 0,0 C 0,0 C 11,8 C 10,9 C 0,0 C 86 % 66 % 0 % 0 % 0 % 0,0 mm 0,0 m/s (0 Bft) E-SE 112 0 min 10,0 C 12,3 C 0,0 m/s (0 Bft)
2020-09-21 08:00 20,0 C 12,2 C 15,6 C -2,9 C 0,0 C 0,0 C 11,7 C 10,8 C 0,0 C 86 % 66 % 0 % 0 % 0 % 0,0 mm 0,0 m/s (0 Bft) E-SE 112 0 min 9,9 C 12,2 C 0,0 m/s (0 Bft)
2020-09-21 07:55 20,0 C 12,3 C 15,4 C -4,0 C 0,0 C 0,0 C 11,8 C 10,8 C 0,0 C 86 % 65 % 0 % 0 % 0 % 0,0 mm 0,0 m/s (0 Bft) E-SE 112 0 min 10,0 C 12,3 C 0,0 m/s (0 Bft)
2020-09-21 07:50 20,0 C 12,3 C 15,5 C -4,1 C 0,0 C 0,0 C 11,8 C 10,7 C 0,0 C 86 % 65 % 0 % 0 % 0 % 0,0 mm 0,1 m/s (0 Bft) SE 135 0 min 10,0 C 12,3 C 0,0 m/s (0 Bft)
2020-09-21 07:45 20,0 C 12,3 C 15,4 C -2,6 C 0,0 C 0,0 C 11,8 C 10,7 C 0,0 C 86 % 65 % 0 % 0 % 0 % 0,0 mm 0,4 m/s (1 Bft) E-NE 67 0 min 10,0 C 12,3 C 0,0 m/s (0 Bft)
2020-09-21 07:40 20,0 C 12,1 C 15,3 C -2,1 C 0,0 C 0,0 C 11,6 C 10,7 C 0,0 C 86 % 65 % 0 % 0 % 0 % 0,0 mm 0,5 m/s (1 Bft) S 180 0 min 9,8 C 12,1 C 0,0 m/s (0 Bft)
2020-09-21 07:35 20,0 C 12,3 C 15,3 C -4,4 C 0,0 C 0,0 C 11,8 C 10,7 C 0,0 C 86 % 65 % 0 % 0 % 0 % 0,0 mm 0,5 m/s (1 Bft) S 180 0 min 10,0 C 12,3 C 0,5 m/s (1 Bft)
2020-09-21 07:30 20,0 C 12,3 C 15,5 C -7,1 C 0,0 C 0,0 C 11,8 C 10,7 C 0,0 C 86 % 65 % 0 % 0 % 0 % 0,0 mm 0,6 m/s (1 Bft) S 180 0 min 10,0 C 12,3 C 1,0 m/s (1 Bft)
2020-09-21 07:25 20,0 C 12,1 C 15,5 C -10,0 C 0,0 C 0,0 C 11,6 C 10,7 C 0,0 C 86 % 65 % 0 % 0 % 0 % 0,0 mm 0,6 m/s (1 Bft) SW 225 0 min 9,8 C 12,1 C 0,9 m/s (1 Bft)
2020-09-21 07:20 20,0 C 12,2 C 15,5 C -10,9 C 0,0 C 0,0 C 11,7 C 10,7 C 0,0 C 87 % 65 % 0 % 0 % 0 % 0,0 mm 0,5 m/s (1 Bft) S 180 0 min 10,1 C 12,2 C 0,7 m/s (1 Bft)
2020-09-21 07:15 20,0 C 12,1 C 15,4 C -9,8 C 0,0 C 0,0 C 11,6 C 10,7 C 0,0 C 86 % 65 % 0 % 0 % 0 % 0,0 mm 0,5 m/s (1 Bft) SE 135 0 min 9,8 C 12,1 C 1,2 m/s (1 Bft)
2020-09-21 07:10 20,0 C 12,1 C 15,4 C -12,3 C 0,0 C 0,0 C 11,6 C 10,7 C 0,0 C 87 % 65 % 0 % 0 % 0 % 0,0 mm 0,4 m/s (1 Bft) S-SE 157 0 min 10,0 C 12,1 C 0,9 m/s (1 Bft)
2020-09-21 07:05 20,1 C 12,1 C 15,5 C -10,9 C 0,0 C 0,0 C 11,6 C 10,7 C 0,0 C 87 % 65 % 0 % 0 % 0 % 0,0 mm 0,4 m/s (1 Bft) S-SE 157 0 min 10,0 C 12,1 C 1,0 m/s (1 Bft)
2020-09-21 07:00 20,1 C 12,1 C 15,5 C -13,4 C 0,0 C 0,0 C 11,6 C 10,7 C 0,0 C 87 % 65 % 0 % 0 % 0 % 0,0 mm 0,3 m/s (1 Bft) SE 135 0 min 10,0 C 12,1 C 0,0 m/s (0 Bft)
2020-09-21 06:55 20,1 C 12,1 C 15,5 C -16,2 C 0,0 C 0,0 C 11,6 C 10,7 C 0,0 C 87 % 64 % 0 % 0 % 0 % 0,0 mm 0,4 m/s (1 Bft) SW 225 0 min 10,0 C 12,1 C 0,0 m/s (0 Bft)
2020-09-21 06:50 20,1 C 12,1 C 15,5 C -17,5 C 0,0 C 0,0 C 11,6 C 10,7 C 0,0 C 87 % 64 % 0 % 0 % 0 % 0,0 mm 0,4 m/s (1 Bft) S-SE 157 0 min 10,0 C 12,1 C 0,0 m/s (0 Bft)
2020-09-21 06:45 20,1 C 12,1 C 15,5 C -17,3 C 0,0 C 0,0 C 11,6 C 10,7 C 0,0 C 87 % 64 % 0 % 0 % 0 % 0,0 mm 0,1 m/s (0 Bft) S-SE 157 0 min 10,0 C 12,1 C 0,8 m/s (1 Bft)
2020-09-21 06:40 20,1 C 12,1 C 15,5 C -18,0 C 0,0 C 0,0 C 11,6 C 10,7 C 0,0 C 87 % 64 % 0 % 0 % 0 % 0,0 mm 0,1 m/s (0 Bft) S-SE 157 0 min 10,0 C 12,1 C 0,0 m/s (0 Bft)
2020-09-21 06:35 20,1 C 12,1 C 15,5 C -16,4 C 0,0 C 0,0 C 11,6 C 10,7 C 0,0 C 87 % 64 % 0 % 0 % 0 % 0,0 mm 0,1 m/s (0 Bft) S-SE 157 0 min 10,0 C 12,1 C 0,5 m/s (1 Bft)
2020-09-21 06:30 20,1 C 12,1 C 15,6 C -17,0 C 0,0 C 0,0 C 11,6 C 10,7 C 0,0 C 87 % 64 % 0 % 0 % 0 % 0,0 mm 0,1 m/s (0 Bft) E 90 0 min 10,0 C 12,1 C 0,0 m/s (0 Bft)
2020-09-21 06:25 20,2 C 12,1 C 15,7 C -18,6 C 0,0 C 0,0 C 11,6 C 10,7 C 0,0 C 86 % 64 % 0 % 0 % 0 % 0,0 mm 0,2 m/s (0 Bft) E-SE 112 0 min 9,8 C 12,1 C 0,0 m/s (0 Bft)
2020-09-21 06:20 20,2 C 12,3 C 15,6 C -18,8 C 0,0 C 0,0 C 11,8 C 10,7 C 0,0 C 86 % 64 % 0 % 0 % 0 % 0,0 mm 0,2 m/s (0 Bft) E 90 0 min 10,0 C 12,3 C 0,7 m/s (1 Bft)
2020-09-21 06:15 20,2 C 12,2 C 15,6 C -17,8 C 0,0 C 0,0 C 11,7 C 10,8 C 0,0 C 86 % 64 % 0 % 0 % 0 % 0,0 mm 0,1 m/s (0 Bft) SE 135 0 min 9,9 C 12,2 C 0,0 m/s (0 Bft)
2020-09-21 06:10 20,2 C 12,3 C 15,7 C -18,8 C 0,0 C 0,0 C 11,8 C 10,8 C 0,0 C 86 % 63 % 0 % 0 % 0 % 0,0 mm 0,1 m/s (0 Bft) S-SE 157 0 min 10,0 C 12,3 C 0,0 m/s (0 Bft)
2020-09-21 06:05 20,2 C 12,3 C 15,7 C -17,8 C 0,0 C 0,0 C 11,8 C 10,8 C 0,0 C 86 % 63 % 0 % 0 % 0 % 0,0 mm 0,1 m/s (0 Bft) SW 225 0 min 10,0 C 12,3 C 0,0 m/s (0 Bft)
2020-09-21 06:00 20,2 C 12,2 C 15,7 C -17,3 C 0,0 C 0,0 C 11,7 C 10,7 C 0,0 C 86 % 63 % 0 % 0 % 0 % 0,0 mm 0,1 m/s (0 Bft) S 180 0 min 9,9 C 12,2 C 0,0 m/s (0 Bft)
2020-09-21 05:55 20,2 C 12,2 C 15,7 C -18,6 C 0,0 C 0,0 C 11,7 C 10,7 C 0,0 C 86 % 63 % 0 % 0 % 0 % 0,0 mm 0,1 m/s (0 Bft) S 180 0 min 9,9 C 12,2 C 0,0 m/s (0 Bft)
2020-09-21 05:50 20,2 C 12,1 C 15,7 C -18,6 C 0,0 C 0,0 C 11,7 C 10,8 C 0,0 C 86 % 63 % 0 % 0 % 0 % 0,0 mm 0,1 m/s (0 Bft) S-SE 157 0 min 9,8 C 12,1 C 0,0 m/s (0 Bft)
2020-09-21 05:45 20,2 C 12,2 C 15,7 C -18,6 C 0,0 C 0,0 C 11,7 C 10,8 C 0,0 C 86 % 63 % 0 % 0 % 0 % 0,0 mm 0,2 m/s (0 Bft) SE 135 0 min 9,9 C 12,2 C 0,0 m/s (0 Bft)
2020-09-21 05:40 20,2 C 12,2 C 15,7 C -17,5 C 0,0 C 0,0 C 11,7 C 10,8 C 0,0 C 86 % 63 % 0 % 0 % 0 % 0,0 mm 0,3 m/s (1 Bft) E-NE 67 0 min 9,9 C 12,2 C 0,0 m/s (0 Bft)
2020-09-21 05:35 20,2 C 12,3 C 15,7 C -17,8 C 0,0 C 0,0 C 11,8 C 10,8 C 0,0 C 86 % 63 % 0 % 0 % 0 % 0,0 mm 0,3 m/s (0 Bft) E 90 0 min 10,0 C 12,3 C 0,0 m/s (0 Bft)
2020-09-21 05:30 20,2 C 12,3 C 15,7 C -18,0 C 0,0 C 0,0 C 11,8 C 10,8 C 0,0 C 86 % 63 % 0 % 0 % 0 % 0,0 mm 0,1 m/s (0 Bft) SE 135 0 min 10,0 C 12,3 C 0,0 m/s (0 Bft)
2020-09-21 05:25 20,2 C 12,3 C 15,9 C -16,4 C 0,0 C 0,0 C 11,8 C 10,8 C 0,0 C 86 % 63 % 0 % 0 % 0 % 0,0 mm 0,1 m/s (0 Bft) E 90 0 min 10,0 C 12,3 C 0,6 m/s (1 Bft)
2020-09-21 05:20 20,2 C 12,3 C 15,9 C -17,8 C 0,0 C 0,0 C 11,8 C 10,8 C 0,0 C 86 % 63 % 0 % 0 % 0 % 0,0 mm 0,0 m/s (0 Bft) NE 45 0 min 10,0 C 12,3 C 0,0 m/s (0 Bft)
2020-09-21 05:15 20,2 C 12,3 C 15,8 C -18,0 C 0,0 C 0,0 C 11,8 C 10,8 C 0,0 C 86 % 63 % 0 % 0 % 0 % 0,0 mm 0,0 m/s (0 Bft) N-NE 22 0 min 10,0 C 12,3 C 0,4 m/s (1 Bft)
2020-09-21 05:10 20,3 C 12,3 C 15,8 C -17,3 C 0,0 C 0,0 C 11,8 C 10,8 C 0,0 C 86 % 63 % 0 % 0 % 0 % 0,0 mm 0,0 m/s (0 Bft) E-NE 67 0 min 10,0 C 12,3 C 0,0 m/s (0 Bft)
2020-09-21 05:05 20,3 C 12,3 C 15,9 C -19,9 C 0,0 C 0,0 C 11,8 C 10,8 C 0,0 C 86 % 63 % 0 % 0 % 0 % 0,0 mm 0,0 m/s (0 Bft) E-NE 67 0 min 10,0 C 12,3 C 0,0 m/s (0 Bft)
2020-09-21 05:00 20,3 C 12,4 C 15,9 C -18,8 C 0,0 C 0,0 C 11,9 C 10,8 C 0,0 C 86 % 63 % 0 % 0 % 0 % 0,0 mm 0,0 m/s (0 Bft) NE 45 0 min 10,1 C 12,4 C 0,0 m/s (0 Bft)
2020-09-21 04:55 20,3 C 12,4 C 15,9 C -15,9 C 0,0 C 0,0 C 11,9 C 10,8 C 0,0 C 86 % 63 % 0 % 0 % 0 % 0,0 mm 0,2 m/s (0 Bft) NE 45 0 min 10,1 C 12,4 C 0,0 m/s (0 Bft)
2020-09-21 04:50 20,2 C 12,4 C 15,9 C -18,8 C 0,0 C 0,0 C 11,9 C 10,8 C 0,0 C 86 % 63 % 0 % 0 % 0 % 0,0 mm 0,2 m/s (0 Bft) N 360 0 min 10,1 C 12,4 C 0,0 m/s (0 Bft)
2020-09-21 04:45 20,3 C 12,4 C 16,0 C -17,5 C 0,0 C 0,0 C 11,9 C 10,8 C 0,0 C 86 % 63 % 0 % 0 % 0 % 0,0 mm 0,2 m/s (0 Bft) N 360 0 min 10,1 C 12,4 C 0,6 m/s (1 Bft)
2020-09-21 04:40 20,2 C 12,4 C 15,9 C -16,7 C 0,0 C 0,0 C 11,9 C 10,8 C 0,0 C 86 % 63 % 0 % 0 % 0 % 0,0 mm 0,4 m/s (1 Bft) N-NW 337 0 min 10,1 C 12,4 C 0,0 m/s (0 Bft)
2020-09-21 04:35 20,4 C 12,3 C 16,0 C -16,7 C 0,0 C 0,0 C 11,8 C 10,8 C 0,0 C 86 % 63 % 0 % 0 % 0 % 0,0 mm 0,4 m/s (1 Bft) N-NW 337 0 min 10,0 C 12,3 C 0,0 m/s (0 Bft)
2020-09-21 04:30 20,4 C 12,4 C 16,0 C -16,4 C 0,0 C 0,0 C 11,9 C 10,8 C 0,0 C 86 % 63 % 0 % 0 % 0 % 0,0 mm 0,3 m/s (1 Bft) W-NW 292 0 min 10,1 C 12,4 C 0,0 m/s (0 Bft)
2020-09-21 04:25 20,2 C 12,4 C 16,0 C -17,5 C 0,0 C 0,0 C 11,9 C 10,8 C 0,0 C 86 % 63 % 0 % 0 % 0 % 0,0 mm 0,4 m/s (1 Bft) NW 315 0 min 10,1 C 12,4 C 0,9 m/s (1 Bft)
2020-09-21 04:20 20,4 C 12,4 C 16,0 C -14,8 C 0,0 C 0,0 C 11,9 C 10,8 C 0,0 C 86 % 63 % 0 % 0 % 0 % 0,0 mm 0,3 m/s (1 Bft) NW 315 0 min 10,1 C 12,4 C 0,0 m/s (0 Bft)
2020-09-21 04:15 20,4 C 12,3 C 16,0 C -14,5 C 0,0 C 0,0 C 11,8 C 10,8 C 0,0 C 86 % 63 % 0 % 0 % 0 % 0,0 mm 0,3 m/s (1 Bft) N-NW 337 0 min 10,0 C 12,3 C 0,0 m/s (0 Bft)
2020-09-21 04:10 20,4 C 12,3 C 16,1 C -17,3 C 0,0 C 0,0 C 11,8 C 10,8 C 0,0 C 86 % 63 % 0 % 0 % 0 % 0,0 mm 0,5 m/s (1 Bft) W 270 0 min 10,0 C 12,3 C 0,0 m/s (0 Bft)
2020-09-21 04:05 20,4 C 12,3 C 16,1 C -13,4 C 0,0 C 0,0 C 11,8 C 10,8 C 0,0 C 86 % 63 % 0 % 0 % 0 % 0,0 mm 0,8 m/s (1 Bft) NW 315 0 min 10,0 C 12,3 C 0,0 m/s (0 Bft)
2020-09-21 04:00 20,4 C 12,4 C 16,0 C -13,1 C 0,0 C 0,0 C 11,9 C 10,8 C 0,0 C 86 % 63 % 0 % 0 % 0 % 0,0 mm 0,9 m/s (1 Bft) NW 315 0 min 10,1 C 12,4 C 1,3 m/s (1 Bft)
2020-09-21 03:55 20,4 C 12,3 C 16,1 C -15,0 C 0,0 C 0,0 C 11,8 C 10,8 C 0,0 C 86 % 62 % 0 % 0 % 0 % 0,0 mm 0,9 m/s (1 Bft) NW 315 0 min 10,0 C 12,3 C 1,1 m/s (1 Bft)
2020-09-21 03:50 20,4 C 12,4 C 16,1 C -16,2 C 0,0 C 0,0 C 11,9 C 10,8 C 0,0 C 86 % 62 % 0 % 0 % 0 % 0,0 mm 0,8 m/s (1 Bft) W-NW 292 0 min 10,1 C 12,4 C 1,1 m/s (1 Bft)
2020-09-21 03:45 20,4 C 12,4 C 16,1 C -12,3 C 0,0 C 0,0 C 11,9 C 10,8 C 0,0 C 86 % 62 % 0 % 0 % 0 % 0,0 mm 0,8 m/s (1 Bft) N-NW 337 0 min 10,1 C 12,4 C 0,8 m/s (1 Bft)
2020-09-21 03:40 20,4 C 12,4 C 16,1 C -15,0 C 0,0 C 0,0 C 11,9 C 10,8 C 0,0 C 86 % 62 % 0 % 0 % 0 % 0,0 mm 0,9 m/s (1 Bft) NW 315 0 min 10,1 C 12,4 C 0,8 m/s (1 Bft)
2020-09-21 03:35 20,4 C 12,4 C 16,3 C -14,8 C 0,0 C 0,0 C 11,9 C 10,9 C 0,0 C 86 % 62 % 0 % 0 % 0 % 0,0 mm 0,7 m/s (1 Bft) NW 315 0 min 10,1 C 12,4 C 0,7 m/s (1 Bft)
2020-09-21 03:30 20,4 C 12,4 C 16,3 C -12,8 C 0,0 C 0,0 C 11,9 C 10,9 C 0,0 C 86 % 62 % 0 % 0 % 0 % 0,0 mm 0,6 m/s (1 Bft) E-SE 112 0 min 10,1 C 12,4 C 1,7 m/s (2 Bft)
2020-09-21 03:25 20,4 C 12,4 C 16,2 C -13,9 C 0,0 C 0,0 C 11,9 C 11,0 C 0,0 C 86 % 62 % 0 % 0 % 0 % 0,0 mm 0,7 m/s (1 Bft) W-SW 247 0 min 10,1 C 12,4 C 0,9 m/s (1 Bft)
2020-09-21 03:20 20,5 C 12,4 C 16,2 C -14,2 C 0,0 C 0,0 C 11,9 C 10,9 C 0,0 C 86 % 62 % 0 % 0 % 0 % 0,0 mm 0,5 m/s (1 Bft) NW 315 0 min 10,1 C 12,4 C 0,6 m/s (1 Bft)
2020-09-21 03:15 20,5 C 12,4 C 16,3 C -12,0 C 0,0 C 0,0 C 11,9 C 10,9 C 0,0 C 86 % 62 % 0 % 0 % 0 % 0,0 mm 0,3 m/s (0 Bft) NW 315 0 min 10,1 C 12,4 C 0,8 m/s (1 Bft)
2020-09-21 03:10 20,5 C 12,4 C 16,3 C -15,3 C 0,0 C 0,0 C 11,9 C 10,9 C 0,0 C 86 % 62 % 0 % 0 % 0 % 0,0 mm 0,2 m/s (0 Bft) NW 315 0 min 10,1 C 12,4 C 0,0 m/s (0 Bft)
2020-09-21 03:05 20,5 C 12,4 C 16,3 C -15,3 C 0,0 C 0,0 C 11,9 C 11,0 C 0,0 C 86 % 62 % 0 % 0 % 0 % 0,0 mm 0,4 m/s (1 Bft) N-NE 22 0 min 10,1 C 12,4 C 0,7 m/s (1 Bft)
2020-09-21 03:00 20,5 C 12,4 C 16,3 C -17,0 C 0,0 C 0,0 C 11,9 C 10,9 C 0,0 C 86 % 62 % 0 % 0 % 0 % 0,0 mm 0,4 m/s (1 Bft) N-NW 337 0 min 10,1 C 12,4 C 0,0 m/s (0 Bft)
2020-09-21 02:55 20,5 C 12,4 C 16,3 C -15,6 C 0,0 C 0,0 C 11,9 C 11,0 C 0,0 C 86 % 62 % 0 % 0 % 0 % 0,0 mm 0,3 m/s (1 Bft) W-NW 292 0 min 10,1 C 12,4 C 0,6 m/s (1 Bft)
2020-09-21 02:50 20,5 C 12,4 C 16,3 C -19,3 C 0,0 C 0,0 C 11,9 C 10,9 C 0,0 C 86 % 62 % 0 % 0 % 0 % 0,0 mm 0,3 m/s (0 Bft) NW 315 0 min 10,1 C 12,4 C 0,6 m/s (1 Bft)
2020-09-21 02:45 20,5 C 12,3 C 16,4 C -17,0 C 0,0 C 0,0 C 11,8 C 10,9 C 0,0 C 86 % 62 % 0 % 0 % 0 % 0,0 mm 0,4 m/s (1 Bft) NW 315 0 min 10,0 C 12,3 C 0,0 m/s (0 Bft)
2020-09-21 02:40 20,6 C 12,3 C 16,4 C -17,3 C 0,0 C 0,0 C 11,8 C 10,9 C 0,0 C 86 % 62 % 0 % 0 % 0 % 0,0 mm 0,5 m/s (1 Bft) W 270 0 min 10,0 C 12,3 C 1,0 m/s (1 Bft)
2020-09-21 02:35 20,6 C 12,3 C 16,4 C -17,8 C 0,0 C 0,0 C 11,8 C 10,9 C 0,0 C 86 % 62 % 0 % 0 % 0 % 0,0 mm 0,5 m/s (1 Bft) NW 315 0 min 10,0 C 12,3 C 0,6 m/s (1 Bft)
2020-09-21 02:30 20,6 C 12,3 C 16,4 C -18,0 C 0,0 C 0,0 C 11,8 C 10,9 C 0,0 C 86 % 62 % 0 % 0 % 0 % 0,0 mm 0,5 m/s (1 Bft) N 360 0 min 10,0 C 12,3 C 0,7 m/s (1 Bft)
2020-09-21 02:25 20,6 C 12,3 C 16,4 C -16,7 C 0,0 C 0,0 C 11,8 C 10,9 C 0,0 C 86 % 62 % 0 % 0 % 0 % 0,0 mm 0,4 m/s (1 Bft) N-NW 337 0 min 10,0 C 12,3 C 0,7 m/s (1 Bft)
2020-09-21 02:20 20,6 C 12,3 C 16,5 C -18,3 C 0,0 C 0,0 C 11,8 C 10,8 C 0,0 C 86 % 62 % 0 % 0 % 0 % 0,0 mm 0,6 m/s (1 Bft) NW 315 0 min 10,0 C 12,3 C 0,0 m/s (0 Bft)
2020-09-21 02:15 20,6 C 12,3 C 16,5 C -17,3 C 0,0 C 0,0 C 11,8 C 10,8 C 0,0 C 86 % 62 % 0 % 0 % 0 % 0,0 mm 1,2 m/s (1 Bft) N-NE 22 0 min 10,0 C 12,3 C 1,2 m/s (1 Bft)
2020-09-21 02:10 20,6 C 12,3 C 16,4 C -18,6 C 0,0 C 0,0 C 11,8 C 10,8 C 0,0 C 86 % 62 % 0 % 0 % 0 % 0,0 mm 1,1 m/s (1 Bft) N-NE 22 0 min 10,0 C 12,3 C 0,0 m/s (0 Bft)
2020-09-21 02:05 20,6 C 12,3 C 16,5 C -17,5 C 0,0 C 0,0 C 11,8 C 10,9 C 0,0 C 86 % 61 % 0 % 0 % 0 % 0,0 mm 0,7 m/s (1 Bft) NW 315 0 min 10,0 C 12,3 C 1,2 m/s (1 Bft)
2020-09-21 02:00 20,6 C 12,3 C 16,5 C -16,4 C 0,0 C 0,0 C 11,8 C 10,9 C 0,0 C 86 % 61 % 0 % 0 % 0 % 0,0 mm 0,5 m/s (1 Bft) NW 315 0 min 10,0 C 12,3 C 0,8 m/s (1 Bft)
2020-09-21 01:55 20,7 C 12,3 C 16,5 C -17,0 C 0,0 C 0,0 C 11,8 C 10,9 C 0,0 C 86 % 61 % 0 % 0 % 0 % 0,0 mm 0,4 m/s (1 Bft) W 270 0 min 10,0 C 12,3 C 0,9 m/s (1 Bft)
2020-09-21 01:50 20,6 C 12,3 C 16,5 C -19,1 C 0,0 C 0,0 C 11,8 C 10,8 C 0,0 C 86 % 61 % 0 % 0 % 0 % 0,0 mm 0,4 m/s (1 Bft) W 270 0 min 10,0 C 12,3 C 0,6 m/s (1 Bft)
2020-09-21 01:45 20,7 C 12,3 C 16,5 C -15,9 C 0,0 C 0,0 C 11,8 C 10,8 C 0,0 C 86 % 61 % 0 % 0 % 0 % 0,0 mm 0,3 m/s (1 Bft) NW 315 0 min 10,0 C 12,3 C 0,4 m/s (1 Bft)
2020-09-21 01:40 20,7 C 12,3 C 16,7 C -16,2 C 0,0 C 0,0 C 11,8 C 10,8 C 0,0 C 86 % 61 % 0 % 0 % 0 % 0,0 mm 0,3 m/s (0 Bft) NW 315 0 min 10,0 C 12,3 C 0,4 m/s (1 Bft)
2020-09-21 01:35 20,7 C 12,3 C 16,7 C -17,5 C 0,0 C 0,0 C 11,8 C 10,8 C 0,0 C 86 % 61 % 0 % 0 % 0 % 0,0 mm 0,2 m/s (0 Bft) NW 315 0 min 10,0 C 12,3 C 0,0 m/s (0 Bft)
2020-09-21 01:30 20,7 C 12,2 C 16,7 C -16,4 C 0,0 C 0,0 C 11,7 C 10,8 C 0,0 C 86 % 61 % 0 % 0 % 0 % 0,0 mm 0,4 m/s (1 Bft) W 270 0 min 9,9 C 12,2 C 0,5 m/s (1 Bft)
2020-09-21 01:25 20,7 C 12,2 C 16,7 C -13,7 C 0,0 C 0,0 C 11,7 C 10,8 C 0,0 C 87 % 61 % 0 % 0 % 0 % 0,0 mm 0,9 m/s (1 Bft) SW 225 0 min 10,1 C 12,2 C 0,0 m/s (0 Bft)
2020-09-21 01:20 20,7 C 12,2 C 16,7 C -17,0 C 0,0 C 0,0 C 11,7 C 10,8 C 0,0 C 86 % 61 % 0 % 0 % 0 % 0,0 mm 1,0 m/s (1 Bft) W-NW 292 0 min 9,9 C 12,2 C 2,1 m/s (2 Bft)
2020-09-21 01:15 20,8 C 12,1 C 16,6 C -16,7 C 0,0 C 0,0 C 11,7 C 10,9 C 0,0 C 87 % 61 % 0 % 0 % 0 % 0,0 mm 0,7 m/s (1 Bft) W 270 0 min 10,0 C 12,1 C 1,6 m/s (2 Bft)
2020-09-21 01:10 20,8 C 12,2 C 16,6 C -18,0 C 0,0 C 0,0 C 11,8 C 10,9 C 0,0 C 87 % 61 % 0 % 0 % 0 % 0,0 mm 0,7 m/s (1 Bft) N-NW 337 0 min 10,1 C 12,2 C 0,9 m/s (1 Bft)
2020-09-21 01:05 20,8 C 12,1 C 16,7 C -17,5 C 0,0 C 0,0 C 11,7 C 10,8 C 0,0 C 87 % 61 % 0 % 0 % 0 % 0,0 mm 0,9 m/s (1 Bft) NW 315 0 min 10,0 C 12,1 C 0,7 m/s (1 Bft)
2020-09-21 01:00 20,8 C 12,0 C 16,7 C -16,7 C 0,0 C 0,0 C 11,6 C 10,8 C 0,0 C 86 % 61 % 0 % 0 % 0 % 0,0 mm 1,1 m/s (1 Bft) N-NE 22 0 min 9,7 C 12,0 C 0,8 m/s (1 Bft)
2020-09-21 00:55 20,8 C 12,0 C 16,7 C -17,3 C 0,0 C 0,0 C 11,6 C 10,7 C 0,0 C 86 % 61 % 0 % 0 % 0 % 0,0 mm 1,3 m/s (1 Bft) E-NE 67 0 min 9,7 C 12,0 C 0,0 m/s (0 Bft)
2020-09-21 00:50 20,8 C 12,1 C 16,8 C -17,8 C 0,0 C 0,0 C 11,6 C 10,7 C 0,0 C 86 % 61 % 0 % 0 % 0 % 0,0 mm 1,6 m/s (1 Bft) W-SW 247 0 min 9,8 C 12,1 C 2,6 m/s (2 Bft)
2020-09-21 00:45 20,8 C 12,0 C 16,9 C -17,0 C 0,0 C 0,0 C 11,6 C 10,7 C 0,0 C 86 % 60 % 0 % 0 % 0 % 0,0 mm 1,1 m/s (1 Bft) N-NE 22 0 min 9,7 C 12,0 C 1,0 m/s (1 Bft)
2020-09-21 00:40 20,8 C 12,1 C 16,8 C -15,9 C 0,0 C 0,0 C 11,6 C 10,7 C 0,0 C 86 % 60 % 0 % 0 % 0 % 0,0 mm 0,9 m/s (1 Bft) NW 315 0 min 9,8 C 12,1 C 1,4 m/s (1 Bft)
2020-09-21 00:35 20,8 C 12,1 C 16,8 C -18,6 C 0,0 C 0,0 C 11,6 C 10,6 C 0,0 C 86 % 60 % 0 % 0 % 0 % 0,0 mm 1,0 m/s (1 Bft) N-NE 22 0 min 9,8 C 12,1 C 0,9 m/s (1 Bft)
2020-09-21 00:30 20,8 C 12,1 C 16,9 C -17,8 C 0,0 C 0,0 C 11,6 C 10,7 C 0,0 C 86 % 60 % 0 % 0 % 0 % 0,0 mm 1,1 m/s (1 Bft) W 270 0 min 9,8 C 12,1 C 2,6 m/s (2 Bft)
2020-09-21 00:25 20,8 C 12,1 C 16,9 C -15,6 C 0,0 C 0,0 C 11,6 C 10,7 C 0,0 C 86 % 60 % 0 % 0 % 0 % 0,0 mm 0,9 m/s (1 Bft) N-NW 337 0 min 9,8 C 12,1 C 1,4 m/s (1 Bft)
2020-09-21 00:20 20,9 C 12,1 C 16,9 C -16,2 C 0,0 C 0,0 C 11,6 C 10,7 C 0,0 C 86 % 60 % 0 % 0 % 0 % 0,0 mm 0,6 m/s (1 Bft) NW 315 0 min 9,8 C 12,1 C 0,9 m/s (1 Bft)
2020-09-21 00:15 20,9 C 12,3 C 17,1 C -18,0 C 0,0 C 0,0 C 11,8 C 10,7 C 0,0 C 86 % 60 % 0 % 0 % 0 % 0,0 mm 0,5 m/s (1 Bft) N-NW 337 0 min 10,0 C 12,3 C 1,0 m/s (1 Bft)
2020-09-21 00:10 20,9 C 12,3 C 17,1 C -18,3 C 0,0 C 0,0 C 11,8 C 10,7 C 0,0 C 86 % 60 % 0 % 0 % 0 % 0,0 mm 0,4 m/s (1 Bft) W-SW 247 0 min 10,0 C 12,3 C 0,0 m/s (0 Bft)
2020-09-21 00:05 20,9 C 12,3 C 17,1 C -17,0 C 0,0 C 0,0 C 11,8 C 10,9 C 0,0 C 86 % 60 % 0 % 0 % 0 % 0,0 mm 0,4 m/s (1 Bft) W-NW 292 0 min 10,0 C 12,3 C 0,0 m/s (0 Bft)
2020-09-21 00:00 20,9 C 12,3 C 17,0 C -18,8 C 0,0 C 0,0 C 11,8 C 10,9 C 0,0 C 86 % 60 % 0 % 0 % 0 % 0,0 mm 0,4 m/s (1 Bft) NW 315 0 min 10,0 C 12,3 C 0,0 m/s (0 Bft)
2020-09-20 23:55 20,9 C 12,3 C 17,1 C -20,6 C 0,0 C 0,0 C 11,8 C 10,9 C 0,0 C 86 % 59 % 0 % 0 % 0 % 0,0 mm 0,4 m/s (1 Bft) W 270 0 min 10,0 C 12,3 C 0,9 m/s (1 Bft)
2020-09-20 23:50 21,0 C 12,3 C 17,1 C -20,1 C 0,0 C 0,0 C 11,8 C 10,9 C 0,0 C 86 % 59 % 0 % 0 % 0 % 0,0 mm 0,4 m/s (1 Bft) NW 315 0 min 10,0 C 12,3 C 0,0 m/s (0 Bft)
2020-09-20 23:45 21,0 C 12,3 C 17,2 C -19,9 C 0,0 C 0,0 C 11,8 C 10,9 C 0,0 C 86 % 59 % 0 % 0 % 0 % 0,0 mm 0,4 m/s (1 Bft) N 360 0 min 10,0 C 12,3 C 0,0 m/s (0 Bft)
2020-09-20 23:40 21,0 C 12,3 C 17,1 C -19,1 C 0,0 C 0,0 C 11,8 C 10,9 C 0,0 C 86 % 59 % 0 % 0 % 0 % 0,0 mm 0,4 m/s (1 Bft) NW 315 0 min 10,0 C 12,3 C 0,4 m/s (1 Bft)
2020-09-20 23:35 21,0 C 12,3 C 17,2 C -18,3 C 0,0 C 0,0 C 11,8 C 10,9 C 0,0 C 86 % 59 % 0 % 0 % 0 % 0,0 mm 0,7 m/s (1 Bft) N-NE 22 0 min 10,0 C 12,3 C 0,8 m/s (1 Bft)
2020-09-20 23:30 21,0 C 12,3 C 17,2 C -16,2 C 0,0 C 0,0 C 11,8 C 10,9 C 0,0 C 86 % 59 % 0 % 0 % 0 % 0,0 mm 0,9 m/s (1 Bft) N-NE 22 0 min 10,0 C 12,3 C 0,6 m/s (1 Bft)
2020-09-20 23:25 21,0 C 12,2 C 17,2 C -18,6 C 0,0 C 0,0 C 11,8 C 10,9 C 0,0 C 85 % 59 % 0 % 0 % 0 % 0,0 mm 1,2 m/s (1 Bft) NW 315 0 min 9,8 C 12,2 C 0,6 m/s (1 Bft)
2020-09-20 23:20 21,0 C 12,2 C 17,2 C -18,6 C 0,0 C 0,0 C 11,8 C 10,9 C 0,0 C 85 % 59 % 0 % 0 % 0 % 0,0 mm 1,3 m/s (1 Bft) NW 315 0 min 9,8 C 12,2 C 1,6 m/s (2 Bft)
2020-09-20 23:15 21,0 C 12,1 C 17,2 C -19,1 C 0,0 C 0,0 C 11,7 C 10,9 C 0,0 C 85 % 59 % 0 % 0 % 0 % 0,0 mm 1,4 m/s (1 Bft) W-NW 292 0 min 9,7 C 12,1 C 2,3 m/s (2 Bft)
2020-09-20 23:10 21,0 C 12,1 C 17,3 C -18,8 C 0,0 C 0,0 C 11,7 C 10,8 C 0,0 C 85 % 59 % 0 % 0 % 0 % 0,0 mm 1,4 m/s (1 Bft) NW 315 0 min 9,7 C 12,1 C 0,7 m/s (1 Bft)
2020-09-20 23:05 21,0 C 12,1 C 17,4 C -15,3 C 0,0 C 0,0 C 11,7 C 10,8 C 0,0 C 85 % 58 % 0 % 0 % 0 % 0,0 mm 1,2 m/s (1 Bft) NW 315 0 min 9,7 C 12,1 C 1,3 m/s (1 Bft)
2020-09-20 23:00 21,0 C 12,1 C 17,4 C -16,4 C 0,0 C 0,0 C 11,6 C 10,7 C 0,0 C 84 % 58 % 0 % 0 % 0 % 0,0 mm 1,2 m/s (1 Bft) N-NW 337 0 min 9,5 C 12,1 C 1,6 m/s (2 Bft)
2020-09-20 22:55 21,1 C 12,1 C 17,4 C -16,7 C 0,0 C 0,0 C 11,6 C 10,6 C 0,0 C 84 % 58 % 0 % 0 % 0 % 0,0 mm 1,7 m/s (2 Bft) N 360 0 min 9,5 C 12,1 C 2,1 m/s (2 Bft)
2020-09-20 22:50 21,1 C 12,2 C 17,5 C -16,2 C 0,0 C 0,0 C 11,7 C 10,7 C 0,0 C 84 % 57 % 0 % 0 % 0 % 0,0 mm 1,5 m/s (1 Bft) N 360 0 min 9,6 C 12,2 C 2,3 m/s (2 Bft)
2020-09-20 22:45 21,1 C 12,3 C 17,7 C -16,4 C 0,0 C 0,0 C 11,7 C 10,6 C 0,0 C 84 % 58 % 0 % 0 % 0 % 0,0 mm 1,3 m/s (1 Bft) N-NW 337 0 min 9,7 C 12,3 C 2,0 m/s (2 Bft)
2020-09-20 22:40 21,1 C 12,3 C 17,6 C -17,3 C 0,0 C 0,0 C 11,7 C 10,6 C 0,0 C 84 % 57 % 0 % 0 % 0 % 0,0 mm 1,4 m/s (1 Bft) NW 315 0 min 9,7 C 12,3 C 1,2 m/s (1 Bft)
2020-09-20 22:35 21,1 C 12,3 C 17,6 C -16,4 C 0,0 C 0,0 C 11,7 C 10,5 C 0,0 C 83 % 57 % 0 % 0 % 0 % 0,0 mm 1,2 m/s (1 Bft) NW 315 0 min 9,5 C 12,3 C 1,7 m/s (2 Bft)
2020-09-20 22:30 21,1 C 12,3 C 17,7 C -17,8 C 0,0 C 0,0 C 11,7 C 10,5 C 0,0 C 83 % 57 % 0 % 0 % 0 % 0,0 mm 1,2 m/s (1 Bft) NW 315 0 min 9,5 C 12,3 C 2,2 m/s (2 Bft)
2020-09-20 22:25 21,2 C 12,3 C 17,7 C -18,6 C 0,0 C 0,0 C 11,7 C 10,4 C 0,0 C 83 % 57 % 0 % 0 % 0 % 0,0 mm 1,2 m/s (1 Bft) NW 315 0 min 9,5 C 12,3 C 0,9 m/s (1 Bft)
2020-09-20 22:20 21,2 C 12,2 C 17,7 C -18,0 C 0,0 C 0,0 C 11,6 C 10,3 C 0,0 C 82 % 57 % 0 % 0 % 0 % 0,0 mm 1,2 m/s (1 Bft) NW 315 0 min 9,2 C 12,2 C 1,5 m/s (1 Bft)
2020-09-20 22:15 21,2 C 12,3 C 17,8 C -17,3 C 0,0 C 0,0 C 11,5 C 10,0 C 0,0 C 82 % 57 % 0 % 0 % 0 % 0,0 mm 0,6 m/s (1 Bft) W 270 0 min 9,3 C 12,3 C 1,3 m/s (1 Bft)
2020-09-20 22:10 21,2 C 12,3 C 17,9 C -17,5 C 0,0 C 0,0 C 11,5 C 10,0 C 0,0 C 81 % 56 % 0 % 0 % 0 % 0,0 mm 0,3 m/s (1 Bft) NW 315 0 min 9,1 C 12,3 C 0,8 m/s (1 Bft)
2020-09-20 22:05 21,2 C 12,5 C 17,9 C -17,5 C 0,0 C 0,0 C 11,7 C 10,1 C 0,0 C 81 % 56 % 0 % 0 % 0 % 0,0 mm 0,2 m/s (0 Bft) NW 315 0 min 9,3 C 12,5 C 0,5 m/s (1 Bft)
2020-09-20 22:00 21,2 C 12,4 C 17,9 C -18,6 C 0,0 C 0,0 C 11,6 C 10,1 C 0,0 C 81 % 56 % 0 % 0 % 0 % 0,0 mm 0,2 m/s (0 Bft) NW 315 0 min 9,2 C 12,4 C 0,0 m/s (0 Bft)
2020-09-20 21:55 21,2 C 12,5 C 18,1 C -18,0 C 0,0 C 0,0 C 11,7 C 10,1 C 0,0 C 81 % 56 % 0 % 0 % 0 % 0,0 mm 0,2 m/s (0 Bft) NW 315 0 min 9,3 C 12,5 C 0,0 m/s (0 Bft)
2020-09-20 21:50 21,2 C 12,7 C 18,0 C -16,7 C 0,0 C 0,0 C 11,9 C 10,2 C 0,0 C 81 % 56 % 0 % 0 % 0 % 0,0 mm 0,3 m/s (0 Bft) W-NW 292 0 min 9,5 C 12,7 C 0,4 m/s (1 Bft)
2020-09-20 21:45 21,2 C 12,7 C 18,1 C -18,8 C 0,0 C 0,0 C 11,9 C 10,3 C 0,0 C 81 % 56 % 0 % 0 % 0 % 0,0 mm 0,3 m/s (0 Bft) N-NW 337 0 min 9,5 C 12,7 C 0,6 m/s (1 Bft)
2020-09-20 21:40 21,3 C 12,8 C 18,1 C -19,4 C 0,0 C 0,0 C 12,0 C 10,4 C 0,0 C 81 % 56 % 0 % 0 % 0 % 0,0 mm 0,3 m/s (1 Bft) NW 315 0 min 9,6 C 12,8 C 0,0 m/s (0 Bft)
2020-09-20 21:35 21,3 C 12,8 C 18,3 C -19,4 C 0,0 C 0,0 C 12,0 C 10,5 C 0,0 C 81 % 56 % 0 % 0 % 0 % 0,0 mm 0,3 m/s (1 Bft) N-NW 337 0 min 9,6 C 12,8 C 0,8 m/s (1 Bft)
2020-09-20 21:30 21,2 C 12,9 C 18,2 C -20,9 C 0,0 C 0,0 C 12,1 C 10,5 C 0,0 C 81 % 56 % 0 % 0 % 0 % 0,0 mm 0,5 m/s (1 Bft) NW 315 0 min 9,7 C 12,9 C 0,9 m/s (1 Bft)
2020-09-20 21:25 21,2 C 13,1 C 18,3 C -20,9 C 0,0 C 0,0 C 12,3 C 10,6 C 0,0 C 80 % 56 % 0 % 0 % 0 % 0,0 mm 0,6 m/s (1 Bft) N 360 0 min 9,7 C 13,1 C 0,0 m/s (0 Bft)
2020-09-20 21:20 21,2 C 13,0 C 18,4 C -19,9 C 0,0 C 0,0 C 12,2 C 10,6 C 0,0 C 80 % 56 % 0 % 0 % 0 % 0,0 mm 0,8 m/s (1 Bft) N-NE 22 0 min 9,6 C 13,0 C 0,7 m/s (1 Bft)
2020-09-20 21:15 21,2 C 13,1 C 18,4 C -19,9 C 0,0 C 0,0 C 12,3 C 10,6 C 0,0 C 80 % 56 % 0 % 0 % 0 % 0,0 mm 0,7 m/s (1 Bft) W-NW 292 0 min 9,7 C 13,1 C 0,0 m/s (0 Bft)
2020-09-20 21:10 21,2 C 13,2 C 18,4 C -20,1 C 0,0 C 0,0 C 12,3 C 10,5 C 0,0 C 79 % 56 % 0 % 0 % 0 % 0,0 mm 0,5 m/s (1 Bft) NW 315 0 min 9,6 C 13,2 C 1,3 m/s (1 Bft)
2020-09-20 21:05 21,4 C 13,2 C 18,5 C -20,6 C 0,0 C 0,0 C 12,3 C 10,5 C 0,0 C 79 % 55 % 0 % 0 % 0 % 0,0 mm 0,4 m/s (1 Bft) NW 315 0 min 9,6 C 13,2 C 0,4 m/s (1 Bft)
2020-09-20 21:00 21,4 C 13,3 C 18,7 C -20,9 C 0,0 C 0,0 C 12,4 C 10,6 C 0,0 C 79 % 55 % 0 % 0 % 0 % 0,0 mm 0,2 m/s (0 Bft) NW 315 0 min 9,7 C 13,3 C 0,7 m/s (1 Bft)
2020-09-20 20:55 21,4 C 13,5 C 18,6 C -21,4 C 0,0 C 0,0 C 12,6 C 10,8 C 0,0 C 79 % 55 % 0 % 0 % 0 % 0,0 mm 0,3 m/s (1 Bft) NW 315 0 min 9,9 C 13,5 C 0,0 m/s (0 Bft)
2020-09-20 20:50 21,4 C 13,6 C 18,7 C -20,9 C 0,0 C 0,0 C 12,7 C 10,9 C 0,0 C 79 % 55 % 0 % 0 % 0 % 0,0 mm 0,5 m/s (1 Bft) N-NW 337 0 min 10,0 C 13,6 C 0,0 m/s (0 Bft)
2020-09-20 20:45 21,4 C 13,7 C 18,8 C -21,2 C 0,0 C 0,0 C 12,8 C 11,0 C 0,0 C 78 % 55 % 0 % 0 % 0 % 0,0 mm 0,5 m/s (1 Bft) NW 315 0 min 9,9 C 13,7 C 1,1 m/s (1 Bft)
2020-09-20 20:40 21,4 C 13,7 C 18,8 C -20,9 C 0,0 C 0,0 C 12,8 C 11,0 C 0,0 C 78 % 55 % 0 % 0 % 0 % 0,0 mm 0,4 m/s (1 Bft) NW 315 0 min 9,9 C 13,7 C 0,9 m/s (1 Bft)
2020-09-20 20:35 21,4 C 13,9 C 18,9 C -19,9 C 0,0 C 0,0 C 12,9 C 10,9 C 0,0 C 77 % 55 % 0 % 0 % 0 % 0,0 mm 0,3 m/s (1 Bft) NW 315 0 min 9,9 C 13,9 C 0,0 m/s (0 Bft)
2020-09-20 20:30 21,4 C 13,9 C 19,1 C -20,2 C 0,0 C 0,0 C 12,9 C 11,0 C 0,0 C 77 % 55 % 0 % 0 % 0 % 0,0 mm 0,3 m/s (1 Bft) NW 315 0 min 9,9 C 13,9 C 0,0 m/s (0 Bft)
2020-09-20 20:25 21,4 C 14,0 C 19,1 C -22,0 C 0,0 C 0,0 C 13,0 C 11,0 C 0,0 C 77 % 54 % 0 % 0 % 0 % 0,0 mm 0,4 m/s (1 Bft) N-NW 337 0 min 10,0 C 14,0 C 1,0 m/s (1 Bft)
2020-09-20 20:20 21,4 C 14,1 C 19,2 C -22,0 C 0,0 C 0,0 C 13,1 C 11,0 C 0,0 C 76 % 54 % 0 % 0 % 0 % 0,0 mm 0,5 m/s (1 Bft) W-NW 292 0 min 9,9 C 14,1 C 0,0 m/s (0 Bft)
2020-09-20 20:15 21,5 C 14,2 C 19,2 C -22,0 C 0,0 C 0,0 C 13,2 C 11,1 C 0,0 C 76 % 54 % 0 % 0 % 0 % 0,0 mm 0,4 m/s (1 Bft) NW 315 0 min 10,0 C 14,2 C 1,0 m/s (1 Bft)
2020-09-20 20:10 21,4 C 14,3 C 19,3 C -21,2 C 0,0 C 0,0 C 13,2 C 11,1 C 0,0 C 75 % 54 % 0 % 0 % 0 % 0,0 mm 0,4 m/s (1 Bft) W-NW 292 0 min 9,9 C 14,3 C 1,0 m/s (1 Bft)
2020-09-20 20:05 21,5 C 14,4 C 19,4 C -21,2 C 0,0 C 0,0 C 13,3 C 11,1 C 0,0 C 74 % 54 % 0 % 0 % 0 % 0,0 mm 0,4 m/s (1 Bft) W-NW 292 0 min 9,8 C 14,4 C 0,0 m/s (0 Bft)
2020-09-20 20:00 21,5 C 14,6 C 19,5 C -22,0 C 0,0 C 0,0 C 13,4 C 11,0 C 0,0 C 73 % 54 % 0 % 0 % 0 % 0,0 mm 0,3 m/s (0 Bft) W-NW 292 0 min 9,8 C 14,6 C 1,0 m/s (1 Bft)
2020-09-20 19:55 21,5 C 14,7 C 19,7 C -21,7 C 0,0 C 0,0 C 13,4 C 10,9 C 0,0 C 72 % 54 % 0 % 0 % 0 % 0,0 mm 0,2 m/s (0 Bft) W-NW 292 0 min 9,7 C 14,7 C 0,4 m/s (1 Bft)
2020-09-20 19:50 21,5 C 14,8 C 19,6 C -22,0 C 0,0 C 0,0 C 13,5 C 10,9 C 0,0 C 72 % 54 % 0 % 0 % 0 % 0,0 mm 0,1 m/s (0 Bft) NW 315 0 min 9,8 C 14,8 C 0,8 m/s (1 Bft)
2020-09-20 19:45 21,5 C 15,1 C 19,8 C -20,4 C 0,0 C 0,0 C 13,8 C 11,1 C 0,0 C 72 % 54 % 0 % 0 % 0 % 0,0 mm 0,0 m/s (0 Bft) W 270 0 min 10,1 C 15,1 C 0,0 m/s (0 Bft)
2020-09-20 19:40 21,5 C 15,3 C 19,9 C -21,0 C 0,0 C 0,0 C 14,0 C 11,3 C 0,0 C 71 % 54 % 0 % 0 % 0 % 0,0 mm 0,0 m/s (0 Bft) W 270 0 min 10,1 C 15,3 C 0,0 m/s (0 Bft)
2020-09-20 19:35 21,6 C 15,7 C 20,0 C -20,7 C 0,0 C 0,0 C 14,3 C 11,6 C 0,0 C 71 % 53 % 0 % 0 % 0 % 0,0 mm 0,0 m/s (0 Bft) W 270 0 min 10,5 C 15,7 C 0,0 m/s (0 Bft)
2020-09-20 19:30 21,6 C 15,9 C 20,3 C -20,4 C 0,0 C 0,0 C 14,6 C 11,9 C 0,0 C 71 % 53 % 0 % 0 % 0 % 0,0 mm 0,0 m/s (0 Bft) W 270 0 min 10,6 C 15,9 C 0,0 m/s (0 Bft)
2020-09-20 19:25 21,6 C 16,0 C 20,4 C -19,4 C 0,0 C 0,0 C 14,8 C 12,3 C 0,0 C 71 % 53 % 0 % 0 % 0 % 0,0 mm 0,0 m/s (0 Bft) W 270 0 min 10,7 C 16,0 C 0,0 m/s (0 Bft)
2020-09-20 19:20 21,6 C 16,2 C 20,4 C -16,0 C 0,0 C 0,0 C 15,0 C 12,7 C 0,0 C 70 % 53 % 0 % 0 % 0 % 0,0 mm 0,0 m/s (0 Bft) W 270 0 min 10,7 C 16,2 C 0,0 m/s (0 Bft)
2020-09-20 19:15 21,6 C 16,4 C 20,6 C -15,4 C 0,0 C 0,0 C 15,3 C 13,2 C 0,0 C 70 % 54 % 0 % 0 % 0 % 0,0 mm 0,0 m/s (0 Bft) W 270 0 min 10,9 C 16,4 C 0,0 m/s (0 Bft)
2020-09-20 19:10 21,6 C 16,7 C 20,7 C -14,3 C 0,0 C 0,0 C 15,7 C 13,7 C 0,0 C 69 % 54 % 0 % 0 % 0 % 0,0 mm 0,1 m/s (0 Bft) W 270 0 min 11,0 C 16,7 C 0,0 m/s (0 Bft)
2020-09-20 19:05 21,6 C 16,9 C 20,9 C -10,1 C 0,0 C 0,0 C 16,1 C 14,5 C 0,0 C 69 % 54 % 0 % 0 % 0 % 0,0 mm 0,2 m/s (0 Bft) W 270 0 min 11,2 C 16,9 C 0,0 m/s (0 Bft)
2020-09-20 19:00 21,6 C 17,0 C 21,1 C -8,4 C 0,0 C 0,0 C 16,3 C 15,0 C 0,0 C 69 % 54 % 0 % 0 % 0 % 0,0 mm 0,5 m/s (1 Bft) W-SW 247 0 min 11,3 C 17,0 C 0,6 m/s (1 Bft)
2020-09-20 18:55 21,6 C 17,3 C 21,3 C -8,5 C 0,0 C 0,0 C 16,7 C 15,5 C 0,0 C 68 % 54 % 0 % 0 % 0 % 0,0 mm 0,9 m/s (1 Bft) W 270 0 min 11,3 C 17,3 C 0,7 m/s (1 Bft)
2020-09-20 18:50 21,7 C 17,5 C 21,3 C -6,1 C 0,0 C 0,0 C 16,9 C 15,8 C 0,0 C 68 % 54 % 0 % 0 % 0 % 0,0 mm 0,8 m/s (1 Bft) W 270 0 min 11,5 C 17,5 C 1,5 m/s (1 Bft)
2020-09-20 18:45 21,7 C 17,9 C 21,5 C -6,2 C 0,0 C 0,0 C 17,3 C 16,2 C 0,0 C 67 % 53 % 0 % 0 % 0 % 0,0 mm 0,9 m/s (1 Bft) W 270 0 min 11,7 C 17,9 C 0,9 m/s (1 Bft)
2020-09-20 18:40 21,7 C 18,0 C 21,6 C -3,7 C 0,0 C 0,0 C 17,5 C 16,5 C 0,0 C 66 % 53 % 0 % 0 % 0 % 0,0 mm 1,2 m/s (1 Bft) W-SW 247 0 min 11,6 C 18,0 C 0,6 m/s (1 Bft)
2020-09-20 18:35 21,8 C 18,3 C 21,7 C -3,4 C 0,0 C 0,0 C 17,8 C 16,9 C 0,0 C 65 % 53 % 0 % 0 % 0 % 0,0 mm 1,2 m/s (1 Bft) W-SW 247 0 min 11,6 C 18,3 C 0,8 m/s (1 Bft)
2020-09-20 18:30 21,8 C 18,6 C 21,9 C -3,8 C 0,0 C 0,0 C 18,1 C 17,2 C 0,0 C 64 % 52 % 0 % 0 % 0 % 0,0 mm 1,2 m/s (1 Bft) W-SW 247 0 min 11,7 C 18,6 C 2,2 m/s (2 Bft)
2020-09-20 18:25 21,8 C 18,9 C 22,0 C -4,1 C 0,0 C 0,0 C 18,4 C 17,4 C 0,0 C 62 % 52 % 0 % 0 % 0 % 0,0 mm 1,1 m/s (1 Bft) W-SW 247 0 min 11,5 C 18,9 C 1,2 m/s (1 Bft)
2020-09-20 18:20 21,8 C 19,1 C 22,1 C -2,4 C 0,0 C 0,0 C 18,6 C 17,5 C 0,0 C 62 % 51 % 0 % 0 % 0 % 0,0 mm 1,3 m/s (1 Bft) SW 225 0 min 11,6 C 19,1 C 1,5 m/s (1 Bft)
2020-09-20 18:15 21,8 C 19,5 C 22,3 C -0,7 C 0,0 C 0,0 C 18,9 C 17,8 C 0,0 C 61 % 51 % 0 % 0 % 0 % 0,0 mm 1,5 m/s (1 Bft) S 180 0 min 11,8 C 19,5 C 1,4 m/s (1 Bft)
2020-09-20 18:10 21,8 C 19,7 C 22,5 C -1,7 C 0,0 C 0,0 C 19,2 C 18,1 C 0,0 C 60 % 51 % 0 % 0 % 0 % 0,0 mm 1,5 m/s (1 Bft) S 180 0 min 11,7 C 19,7 C 2,0 m/s (2 Bft)
2020-09-20 18:05 21,9 C 20,3 C 22,6 C -0,4 C 0,0 C 0,0 C 19,6 C 18,2 C 0,0 C 58 % 50 % 0 % 0 % 0 % 0,0 mm 1,7 m/s (2 Bft) SW 225 0 min 11,8 C 20,3 C 1,8 m/s (2 Bft)
2020-09-20 18:00 21,9 C 20,5 C 22,7 C -3,8 C 0,0 C 0,0 C 19,8 C 18,5 C 0,0 C 57 % 50 % 0 % 0 % 0 % 0,0 mm 1,6 m/s (1 Bft) S 180 0 min 11,7 C 20,5 C 1,1 m/s (1 Bft)
_ Min-Time 10:35 00:45 07:35 19:50 18:00 18:00 22:10 22:10 18:00 15:30 15:35 - 18:00 18:00 - 19:15 - - - 22:10 00:45 19:05
Minimum _ 19,4 C 12,0 C 15,3 C -22,0 C 0,0 C 0,0 C 11,5 C 10,0 C 0,0 C 52 % 45 % - 0 % 0 % - 0,0 m/s (0 Bft) - - - 9,1 C 12,0 C 0,0 m/s (0 Bft)
_ Max-Time 18:00 15:20 15:25 13:20 18:00 18:00 15:20 15:20 18:00 01:05 08:00 18:00 18:00 18:00 18:00 18:05 - - 18:00 14:25 15:20 15:30
Maximum _ 21,9 C 23,4 C 26,4 C 3,9 C 0,0 C 0,0 C 23,5 C 23,5 C 0,0 C 87 % 66 % 0 % 0 % 0 % 0,0 mm 1,7 m/s
SW (2 Bft)
- - 0 min 14,7 C 23,4 C 2,6 m/s
S-SE (2 Bft)
Average _ 20,6 C 15,2 C 18,6 C -9,6 C 0,0 C 0,0 C 14,6 C 13,5 C 0,0 C 77 % 59 % #0 min. 0 % 0 % #0,0 mm 0,6 m/s (1 Bft) NW - #0 min. 11,0 C 15,2 C 0,6 m/s (1 Bft)